Location: Plainartige
(45.6866°N, 1.7993°E)
Time: 16:51:11
(UTC+00:00)

Cosmos 2278 Rocket - Pass Details

Date: 03 March 2021
Orbit: 841 x 845 km, 71.0° (Epoch: 10 April)

Event Time Altitude Azimuth Distance (km) Brightness Sun altitude
Rises 20:23:53 0° 335° (NNW) 3,415 6.0 -28.5°
Reaches altitude 10° 20:26:22 10° 338° (NNW) 2,475 5.1 -28.9°
Enters shadow 20:30:48 52° 4° (N) 1,040 2.6 -29.6°
